| time (UTC) | temp C | wind direction | speed KPH | gust KPH | rain 1hr cm | rain 24hr cm | rain mn cm | humidity % | barometer mb |
| 20260508124515 | 12 | 287 | 0.0 | 6.4 | 0.00 | 0.28 | 0.00 | 74 | 1016.8 |
| 20260508123016 | 11 | 287 | 0.0 | 0.0 | 0.00 | 0.28 | 0.00 | 79 | 1016.7 |
| 20260508121511 | 11 | 287 | 0.0 | 0.0 | 0.00 | 0.28 | 0.00 | 80 | 1016.7 |
| 20260508120008 | 11 | 287 | 0.0 | 0.0 | 0.00 | 0.28 | 0.00 | 87 | 1016.5 |
| 20260508114505 | 11 | 287 | 0.0 | 0.0 | 0.00 | 0.36 | 0.00 | 88 | 1016.2 |
| 20260508113004 | 11 | 287 | 0.0 | 0.0 | 0.00 | 0.36 | 0.00 | 92 | 1015.9 |
| 20260508111502 | 10 | 287 | 0.0 | 0.0 | 0.00 | 0.36 | 0.00 | 92 | 1015.8 |
| 20260508110109 | 10 | 287 | 0.0 | 0.0 | 0.00 | 0.36 | 0.00 | 92 | 1015.7 |
| 20260508104559 | 10 | 287 | 0.0 | 0.0 | 0.00 | 0.38 | 0.00 | 93 | 1015.3 |
| 20260508103104 | 10 | 287 | 0.0 | 0.0 | 0.00 | 0.38 | 0.00 | 92 | 1014.8 |
| 20260508101556 | 10 | 287 | 0.0 | 0.0 | 0.00 | 0.38 | 0.00 | 93 | 1014.7 |
| 20260508100052 | 10 | 287 | 0.0 | 0.0 | 0.00 | 0.38 | 0.00 | 93 | 1014.7 |
| 20260508094551 | 10 | 287 | 0.0 | 0.0 | 0.00 | 0.38 | 0.00 | 93 | 1014.5 |
| 20260508093048 | 10 | 287 | 0.0 | 0.0 | 0.00 | 0.38 | 0.00 | 94 | 1014.3 |
| 20260508091547 | 11 | 287 | 0.0 | 0.0 | 0.00 | 0.38 | 0.00 | 94 | 1014.3 |
| 20260508090048 | 11 | 287 | 0.0 | 0.0 | 0.00 | 0.38 | 0.00 | 94 | 1014.2 |
| 20260508084544 | 11 | 287 | 0.0 | 0.0 | 0.00 | 0.41 | 0.00 | 94 | 1014.2 |
| 20260508083045 | 11 | 287 | 0.0 | 0.0 | 0.00 | 0.41 | 0.00 | 94 | 1014.0 |
| 20260508081539 | 11 | 287 | 0.0 | 0.0 | 0.00 | 0.41 | 0.00 | 95 | 1014.0 |
| 20260508080037 | 12 | 287 | 0.0 | 0.0 | 0.00 | 0.41 | 0.00 | 95 | 1013.8 |
| 20260508074536 | 12 | 287 | 0.0 | 0.0 | 0.00 | 0.41 | 0.00 | 95 | 1013.8 |
| 20260508073040 | 12 | 287 | 0.0 | 0.0 | 0.00 | 0.41 | 0.00 | 95 | 1013.7 |
| 20260508071535 | 12 | 287 | 0.0 | 0.0 | 0.00 | 0.41 | 0.00 | 95 | 1013.6 |
| 20260508070033 | 12 | 287 | 0.0 | 0.0 | 0.00 | 0.41 | 0.00 | 95 | 1013.4 |
| 20260508064539 | 12 | 287 | 0.0 | 0.0 | 0.00 | 0.48 | 0.00 | 94 | 1013.3 |
| 20260508063042 | 12 | 287 | 0.0 | 0.0 | 0.00 | 0.48 | 0.00 | 94 | 1013.2 |
| 20260508061531 | 12 | 287 | 0.0 | 0.0 | 0.00 | 0.48 | 0.00 | 95 | 1013.4 |
| 20260508060028 | 12 | 287 | 0.0 | 0.0 | 0.00 | 0.48 | 0.00 | 95 | 1013.4 |
| 20260508054526 | 12 | 287 | 0.0 | 0.0 | 0.00 | 0.66 | 0.00 | 95 | 1013.4 |
| 20260508053025 | 12 | 287 | 0.0 | 0.0 | 0.00 | 0.66 | 0.00 | 95 | 1013.2 |
| 20260508051523 | 13 | 287 | 0.0 | 0.0 | 0.00 | 0.66 | 0.00 | 95 | 1013.0 |
| 20260508050032 | 13 | 287 | 0.0 | 0.0 | 0.00 | 0.66 | 0.00 | 95 | 1013.0 |
| 20260508044519 | 13 | 287 | 0.0 | 0.0 | 0.00 | 0.66 | 0.00 | 95 | 1012.8 |
| 20260508043017 | 13 | 287 | 0.0 | 0.0 | 0.00 | 0.66 | 0.00 | 95 | 1012.7 |
| 20260508041516 | 13 | 287 | 0.0 | 0.0 | 0.00 | 0.66 | 0.00 | 94 | 1012.7 |
| 20260508040015 | 13 | 287 | 0.0 | 0.0 | 0.00 | 0.66 | 0.00 | 94 | 1012.7 |
| 20260508034514 | 13 | 287 | 0.0 | 0.0 | 0.00 | 0.71 | 0.66 | 94 | 1012.6 |
| 20260508033013 | 13 | 287 | 0.0 | 0.0 | 0.00 | 0.71 | 0.66 | 93 | 1012.5 |
| 20260508031512 | 13 | 287 | 0.0 | 0.0 | 0.00 | 0.71 | 0.66 | 93 | 1012.5 |
| 20260508030009 | 13 | 287 | 0.0 | 0.0 | 0.00 | 0.71 | 0.66 | 93 | 1012.3 |
| 20260508024507 | 13 | 287 | 0.0 | 0.0 | 0.00 | 1.14 | 0.66 | 93 | 1012.1 |
| 20260508023007 | 13 | 287 | 0.0 | 0.0 | 0.00 | 1.14 | 0.66 | 93 | 1012.0 |
| 20260508021504 | 13 | 287 | 0.0 | 0.0 | 0.00 | 1.14 | 0.66 | 92 | 1011.9 |
| 20260508020003 | 13 | 287 | 0.0 | 0.0 | 0.00 | 1.14 | 0.66 | 92 | 1011.7 |
| 20260508014501 | 14 | 287 | 0.0 | 0.0 | 0.00 | 1.55 | 0.66 | 90 | 1011.5 |
| 20260508013102 | 14 | 287 | 0.0 | 0.0 | 0.00 | 1.55 | 0.66 | 90 | 1011.3 |
| 20260508011604 | 14 | 287 | 0.0 | 0.0 | 0.00 | 1.55 | 0.66 | 89 | 1010.8 |
| 20260508010057 | 15 | 287 | 0.0 | 0.0 | 0.00 | 1.55 | 0.66 | 89 | 1010.7 |
| 20260508004555 | 15 | 287 | 0.0 | 14.5 | 0.00 | 1.63 | 0.66 | 89 | 1010.2 |
| 20260508003055 | 15 | 287 | 0.0 | 0.0 | 0.00 | 1.63 | 0.66 | 88 | 1009.8 |
| 20260508001612 | 15 | 287 | 0.0 | 3.2 | 0.00 | 1.63 | 0.66 | 88 | 1009.3 |
| 20260508000051 | 15 | 287 | 1.6 | 14.5 | 0.00 | 1.63 | 0.66 | 88 | 1009.4 |
| 20260507234550 | 16 | 286 | 0.0 | 12.9 | 0.00 | 1.68 | 0.66 | 86 | 1009.2 |
| 20260507233049 | 16 | 284 | 1.6 | 8.0 | 0.00 | 1.68 | 0.66 | 86 | 1009.1 |
| 20260507231546 | 16 | 307 | 1.6 | 12.9 | 0.00 | 1.68 | 0.66 | 85 | 1009.1 |
| 20260507230045 | 16 | 319 | 0.0 | 8.0 | 0.00 | 1.68 | 0.66 | 85 | 1008.6 |
| 20260507224552 | 16 | 327 | 0.0 | 4.8 | 0.00 | 1.68 | 0.66 | 84 | 1008.3 |
| 20260507223045 | 16 | 3 | 1.6 | 6.4 | 0.00 | 1.68 | 0.66 | 85 | 1008.2 |
| 20260507221544 | 16 | 340 | 0.0 | 12.9 | 0.00 | 1.68 | 0.66 | 87 | 1008.0 |
| 20260507220045 | 16 | 280 | 1.6 | 14.5 | 0.00 | 1.68 | 0.66 | 87 | 1007.7 |
| 20260507214544 | 17 | 82 | 0.0 | 16.1 | 0.00 | 1.68 | 0.66 | 86 | 1007.3 |
| 20260507213041 | 17 | 307 | 4.8 | 24.1 | 0.00 | 1.68 | 0.66 | 84 | 1007.6 |
| 20260507211539 | 18 | 107 | 0.0 | 22.5 | 0.00 | 1.68 | 0.66 | 85 | 1006.4 |
| 20260507210038 | 17 | 309 | 0.0 | 8.0 | 0.00 | 1.68 | 0.66 | 85 | 1006.3 |
| 20260507204541 | 18 | 344 | 4.8 | 24.1 | 0.00 | 1.68 | 0.66 | 82 | 1006.4 |
| 20260507203035 | 19 | 324 | 3.2 | 24.1 | 0.00 | 1.68 | 0.66 | 81 | 1006.4 |
| 20260507201534 | 22 | 294 | 4.8 | 8.0 | 0.00 | 1.68 | 0.66 | 79 | 1005.9 |
| 20260507200033 | 21 | 294 | 0.0 | 1.6 | 0.00 | 1.68 | 0.66 | 81 | 1005.6 |
| 20260507194532 | 22 | 294 | 0.0 | 1.6 | 0.00 | 1.68 | 0.66 | 78 | 1005.7 |
| 20260507193032 | 23 | 297 | 0.0 | 1.6 | 0.00 | 1.68 | 0.66 | 73 | 1006.0 |
| 20260507191526 | 23 | 298 | 0.0 | 4.8 | 0.00 | 1.68 | 0.66 | 76 | 1006.1 |
| 20260507190024 | 22 | 298 | 0.0 | 6.4 | 0.00 | 1.68 | 0.66 | 77 | 1006.3 |
| 20260507184519 | 22 | 301 | 0.0 | 4.8 | 0.00 | 1.68 | 0.66 | 79 | 1006.4 |
| 20260507183017 | 22 | 301 | 0.0 | 4.8 | 0.00 | 1.68 | 0.66 | 80 | 1006.6 |
| 20260507181515 | 21 | 302 | 0.0 | 0.0 | 0.00 | 1.68 | 0.66 | 80 | 1006.5 |
| 20260507180011 | 21 | 302 | 0.0 | 3.2 | 0.00 | 1.68 | 0.66 | 83 | 1006.8 |
| 20260507174508 | 21 | 302 | 0.0 | 6.4 | 0.00 | 1.70 | 0.66 | 86 | 1007.1 |
| 20260507173006 | 21 | 305 | 0.0 | 0.0 | 0.00 | 1.70 | 0.66 | 88 | 1007.2 |
| 20260507171509 | 20 | 305 | 0.0 | 3.2 | 0.00 | 1.70 | 0.66 | 90 | 1007.2 |
| 20260507170100 | 20 | 305 | 0.0 | 8.0 | 0.00 | 1.70 | 0.66 | 93 | 1007.7 |
| 20260507164557 | 19 | 305 | 0.0 | 0.0 | 0.00 | 1.96 | 0.66 | 94 | 1007.8 |
| 20260507163057 | 19 | 305 | 0.0 | 0.0 | 0.00 | 1.96 | 0.66 | 95 | 1007.6 |
| 20260507161553 | 18 | 305 | 0.0 | 0.0 | 0.00 | 1.96 | 0.66 | 96 | 1007.6 |
| 20260507160054 | 18 | 305 | 0.0 | 0.0 | 0.03 | 1.96 | 0.66 | 96 | 1007.8 |
| 20260507154550 | 18 | 305 | 0.0 | 0.0 | 0.03 | 1.96 | 0.66 | 96 | 1007.5 |
| 20260507153054 | 18 | 305 | 0.0 | 0.0 | 0.05 | 1.96 | 0.66 | 97 | 1007.2 |
| 20260507151547 | 18 | 305 | 0.0 | 0.0 | 0.05 | 1.96 | 0.66 | 97 | 1007.4 |
| 20260507150045 | 17 | 305 | 0.0 | 0.0 | 0.05 | 1.93 | 0.64 | 97 | 1008.0 |
| 20260507144544 | 17 | 305 | 0.0 | 0.0 | 0.05 | 1.93 | 0.64 | 97 | 1008.1 |
| 20260507143046 | 17 | 305 | 0.0 | 0.0 | 0.05 | 1.91 | 0.61 | 97 | 1008.7 |
| 20260507141543 | 17 | 304 | 0.0 | 0.0 | 0.05 | 1.91 | 0.61 | 97 | 1008.6 |
| 20260507140045 | 17 | 305 | 0.0 | 0.0 | 0.03 | 1.88 | 0.58 | 97 | 1008.2 |
| 20260507134544 | 17 | 305 | 0.0 | 0.0 | 0.05 | 1.88 | 0.58 | 97 | 1008.0 |
| 20260507133044 | 17 | 305 | 0.0 | 0.0 | 0.03 | 1.85 | 0.56 | 97 | 1007.8 |
| 20260507131552 | 17 | 305 | 0.0 | 0.0 | 0.10 | 1.85 | 0.56 | 97 | 1007.5 |
| 20260507130036 | 17 | 305 | 0.0 | 0.0 | 0.18 | 1.85 | 0.56 | 97 | 1007.9 |